Regional Weather Roundup
Issued by NWS Cleveland, OH

Home | Current Version | Previous Version | Graphics & Text | Print | Product List | Glossary On
Versions: 1 2 3 4 5 6 7 8 9 10 11 12 13 14 15 16 17 18 19 20 21 22 23 24 25 26 27 28 29 30 31 32 33 34 35 36 37 38 39 40 41 42 43 44 45 46 47 48 49 50
000
ASUS41 KCLE 300610
RWRCLE
OHIO REGIONAL WEATHER ROUNDUP
NATIONAL WEATHER SERVICE CLEVELAND, OH
200 AM EDT MON MAY 30 2016

NOTE: "FAIR" INDICATES FEW OR NO CLOUDS BELOW 12,000 FEET WITH NO
SIGNIFICANT WEATHER AND/OR OBSTRUCTIONS TO VISIBILITY.

OHZ001>008-015>018-024>027-034-035-043-044-300700-
   NORTHWEST OHIO

CITY           SKY/WX    TMP DP  RH WIND       PRES   REMARKS
DEFIANCE       CLEAR     63  56  78 CALM      30.01S
FINDLAY        PTCLDY    68  55  63 CALM      30.01S
TOLEDO EXPRESS CLEAR     62  56  80 CALM      30.00S
TOLEDO EXEC    CLEAR     66  55  67 S3        30.00S
LIMA           MOCLDY    67  57  70 CALM      30.02S
$$

OHZ009>014-019>023-028>033-038-089-300700-
   NORTHEAST OHIO

CITY           SKY/WX    TMP DP  RH WIND       PRES   REMARKS
CLE-HOPKINS    MOCLDY    66  61  84 W6        30.01R
CLE-LAKEFRONT  CLOUDY    68  61  78 S15       29.97R
CUY CO. ARPT   NOT AVBL
LORAIN-ELYRIA  PTCLDY    64  59  83 SW5       30.01R
ASHTABULA      PTCLDY    63  59  87 S6        29.98F
AKRON-CANTON   MOCLDY    64  61  90 S5        30.01F
WOOSTER        CLOUDY    65  61  87 S6        30.01F
MANSFIELD      CLOUDY    63  60  90 SW7       30.02S
YOUNGSTOWN     CLOUDY    66  60  81 S7        30.00F
$$

OHZ042-051>053-060>062-070>072-077>081-300700-
  SOUTHWEST OHIO

CITY           SKY/WX    TMP DP  RH WIND       PRES   REMARKS
CINC-COVINGTON MOCLDY    66  64  93 SE5       30.03S
CINC-LUNKEN    CLOUDY    67  67 100 CALM      30.03F
HAMILTON       MOCLDY    66  63  90 SE5       30.03S
DAYTON         PTCLDY    66  63  90 CALM      30.03F
WRIGHT-PAT AFB PTCLDY    65  65 100 CALM      30.01F
DAYTON GENERAL PTCLDY    65  61  87 S6        30.02S
WILMINGTON     PTCLDY    66  64  93 S7        30.03S
$$

OHZ036-037-039>041-045>050-054>059-063>069-073>076-082>088-300700-
  CENTRAL AND SOUTHEAST OHIO

CITY           SKY/WX    TMP DP  RH WIND       PRES   REMARKS
COLUMBUS       CLOUDY    65  62  90 SW5       30.01F
OSU AIRPORT    CLOUDY    67  62  84 SW7       30.01F
BOLTON FIELD   CLOUDY    65  63  93 SW5       30.03S
RICKENBACK AFB CLOUDY    65  63  93 SW7       30.01F
NEWARK         CLOUDY    68  61  78 CALM      30.01S
MARION         CLOUDY    65  60  84 SW5       30.03R
LANCASTER      CLOUDY    66  61  84 S7        30.02S
ZANESVILLE     CLOUDY    68  63  84 S7        30.01F
NEW PHILLY     MOCLDY    66  62  87 CALM      30.02F
$$



USA.gov is the U.S. government's official web portal to all federal, state and local government web resources and services.